Stations météo

réclame
Mon MeteoGroup
Kirkwall, Grande-Bretagne (3017): Température de l'air & dewpoint: 23.01.2020 00:00:00 - 29.01.2020 00:00:00 (GMT)Kirkwall, Grande-Bretagne (3017): Température de l'air -20cm & Température de l'air -100cm: 23.01.2020 00:00:00 - 29.01.2020 00:00:00 (GMT)Kirkwall, Grande-Bretagne (3017): Vitesse du vent & gusts: 23.01.2020 00:00:00 - 29.01.2020 00:00:00 (GMT)Kirkwall, Grande-Bretagne (3017): Direction du vent: 23.01.2020 00:00:00 - 29.01.2020 00:00:00 (GMT)Kirkwall, Grande-Bretagne (3017): reduced air pressure: 23.01.2020 00:00:00 - 29.01.2020 00:00:00 (GMT)Kirkwall, Grande-Bretagne (3017): visibility: 23.01.2020 00:00:00 - 29.01.2020 00:00:00 (GMT)Kirkwall, Grande-Bretagne (3017): Ensoleillement: 23.01.2020 00:00:00 - 29.01.2020 00:00:00 (GMT)Kirkwall, Grande-Bretagne (3017): Quantités de précipitations: 23.01.2020 00:00:00 - 29.01.2020 00:00:00 (GMT)
Date & Time tt [°C] td [°C] tt -20cm [°C] tt -100cm [°C] ff [km/h] ff [knt] fx [km/h] fx [knt] dd ppp [hPa] vv [km] sd [min] rr [mm]
29.01.2020 00:00:00 3,0 1,5 - - 18 10 - - S 982,6 5 - 1,8
28.01.2020 23:00:00 1,6 0,0 - - 18 10 - - S 983,4 55 0 0,0
28.01.2020 22:00:00 1,8 -0,2 - - 18 10 - - S 983,7 50 0 0,0
28.01.2020 21:00:00 0,8 -1,2 - - 16 9 - - SSW 983,8 65 0 0,0
28.01.2020 20:00:00 2,2 0,2 - - 18 10 - - SSW 983,9 60 0 0,0
28.01.2020 19:00:00 0,4 -1,4 - - 13 7 - - S 983,8 60 0 0,0
28.01.2020 18:00:00 1,2 0,1 - - 9 5 - - S 983,4 40 0 0,0
28.01.2020 17:00:00 1,1 0,0 - - 9 5 - - S 983,1 50 0 0,0
28.01.2020 16:00:00 2,0 0,6 - - 11 6 - - S 982,6 50 48 0,0
28.01.2020 15:00:00 3,2 1,3 - - 8 4 - - SE 982,3 75 60 0,0
28.01.2020 14:00:00 4,0 2,9 - - 4 2 - - ESE 982,2 75 6 0,2
28.01.2020 13:00:00 3,0 2,0 - - 8 4 - - SE 982,3 6 0 0,2
28.01.2020 12:00:00 3,0 1,9 - - 5 3 - - SSE 982,1 30 0 0,6
28.01.2020 11:00:00 2,8 1,6 - - 8 4 - - S 982,2 2,3 0 0,2
28.01.2020 10:00:00 2,6 1,4 - - 9 5 - - SW 981,9 25 0 0,0
28.01.2020 09:00:00 2,4 0,8 5,7 6,4 16 9 - - SW 981,6 50 0 0,0
28.01.2020 08:00:00 2,2 0,8 - - 16 9 - - SW 981,8 40 0 0,2
28.01.2020 07:00:00 3,0 0,1 - - 16 9 - - SSW 981,8 45 0 0,0
28.01.2020 06:00:00 2,7 0,3 - - 13 7 - - SSW 981,9 40 0 0,0
28.01.2020 05:00:00 2,0 -0,4 - - 15 8 - - SSW 981,9 35 0 0,0
28.01.2020 04:00:00 1,7 -1,1 - - 15 8 - - S 982,0 40 0 0,0
28.01.2020 03:00:00 2,1 -1,1 - - 16 9 - - S 982,3 45 0 0,0
28.01.2020 02:00:00 2,5 -1,0 - - 18 10 - - SSW 982,7 45 0 0,0
28.01.2020 01:00:00 2,5 -0,3 - - 18 10 - - S 982,8 45 0 0,0
28.01.2020 00:00:00 2,9 0,3 - - 18 10 - - S 982,8 60 - 0,0
27.01.2020 23:00:00 3,2 0,2 - - 24 13 - - SSW 982,7 60 0 0,0
27.01.2020 22:00:00 2,9 0,1 - - 28 15 - - SSW 982,9 55 0 0,0
27.01.2020 21:00:00 2,6 0,2 - - 24 13 - - SSW 983,3 65 0 0,0
27.01.2020 20:00:00 3,4 0,1 - - 29 16 50 27 SSW 983,4 50 0 0,0
27.01.2020 19:00:00 2,7 -0,3 - - 26 14 - - SSW 983,4 65 0 0,0
27.01.2020 18:00:00 2,8 -0,5 - - 24 13 - - SSW 983,7 60 0 0,0
27.01.2020 17:00:00 2,8 -0,2 - - 24 13 - - SSW 983,6 60 0 0,0
27.01.2020 16:00:00 3,3 -0,3 - - 24 13 - - SSW 984,0 70 0 0,0
27.01.2020 15:00:00 3,7 -0,6 - - 21 11 - - SW 984,1 70 18 0,0
27.01.2020 14:00:00 4,3 -0,5 - - 31 17 46 25 SW 983,8 70 60 0,0
27.01.2020 13:00:00 4,2 0,1 - - 34 18 - - SW 983,9 75 6 0,0
27.01.2020 12:00:00 3,9 0,2 - - 34 18 46 25 SSW 983,9 65 6 0,0
27.01.2020 11:00:00 3,5 0,3 - - 35 19 57 31 S 984,5 13 0 0,0
27.01.2020 10:00:00 4,5 0,6 - - 29 16 - - S 984,6 40 0 0,0
27.01.2020 09:00:00 4,3 0,3 5,9 6,4 28 15 - - S 985,4 40 0 0,0
27.01.2020 08:00:00 4,1 0,3 - - 28 15 46 25 S 985,9 40 0 0,0
27.01.2020 07:00:00 3,9 0,8 - - 31 17 54 29 S 986,6 30 0 0,0
27.01.2020 06:00:00 4,5 0,7 - - 41 22 61 33 S 987,6 35 0 0,0
27.01.2020 05:00:00 4,5 -0,1 - - 31 17 52 28 S 988,2 30 0 0,0
27.01.2020 04:00:00 3,7 -1,0 - - 34 18 - - SSE 989,5 40 0 0,0
27.01.2020 03:00:00 3,0 -1,5 - - 28 15 - - SSE 990,7 40 0 0,0
27.01.2020 02:00:00 2,5 0,0 - - 13 7 - - S 992,0 30 0 0,0
27.01.2020 01:00:00 1,9 -0,5 - - 16 9 - - S 993,2 35 0 0,0
27.01.2020 00:00:00 1,9 -0,3 - - 21 11 - - SSW 993,7 35 - 0,0
26.01.2020 23:00:00 2,6 -0,7 - - 22 12 - - SSW 993,7 35 0 0,0
26.01.2020 22:00:00 2,2 -1,6 - - 22 12 - - SW 994,2 40 0 0,0
26.01.2020 21:00:00 2,8 -0,8 - - 24 13 - - SW 994,5 35 0 0,0
26.01.2020 20:00:00 3,1 -0,1 - - 28 15 48 26 SW 994,5 35 0 0,0
26.01.2020 19:00:00 3,6 -0,2 - - 31 17 - - SW 994,5 40 0 0,0
26.01.2020 18:00:00 3,6 0,7 - - 22 12 - - SW 994,3 40 0 0,0
26.01.2020 17:00:00 4,6 1,0 - - 26 14 - - WSW 994,1 40 0 0,0
26.01.2020 16:00:00 5,7 1,4 - - 26 14 - - WSW 993,7 40 0 0,0
26.01.2020 15:00:00 6,6 1,3 - - 26 14 - - WSW 993,4 30 0 0,0
26.01.2020 14:00:00 6,7 3,3 - - 24 13 54 29 SW 993,1 30 0 0,0
26.01.2020 13:00:00 6,2 2,7 - - 34 18 55 30 W 993,3 9 0 0,2
26.01.2020 12:00:00 7,4 4,4 - - 26 14 50 27 SW 992,7 65 0 0,0
26.01.2020 11:00:00 7,9 5,4 - - 26 14 - - SSW 992,6 29 0 0,0
26.01.2020 10:00:00 7,5 5,1 - - 28 15 - - S 992,4 24 0 0,0
26.01.2020 09:00:00 7,1 5,1 6,0 6,4 26 14 48 26 S 992,3 13 0 0,0
26.01.2020 08:00:00 7,2 4,5 - - 34 18 50 27 S 992,4 28 0 0,0
26.01.2020 07:00:00 7,1 4,6 - - 41 22 52 28 S 993,0 24 0 0,0
26.01.2020 06:00:00 7,1 4,1 - - 37 20 52 28 S 993,5 30 0 0,0
26.01.2020 05:00:00 6,7 4,1 - - 34 18 50 27 S 994,2 30 0 0,0
26.01.2020 04:00:00 6,8 3,8 - - 31 17 48 26 S 994,8 50 0 0,0
26.01.2020 03:00:00 6,5 4,0 - - 28 15 - - S 995,9 35 0 0,0
26.01.2020 02:00:00 6,4 4,1 - - 28 15 - - S 996,8 30 0 0,0
26.01.2020 01:00:00 6,3 4,2 - - 24 13 - - S 997,8 35 0 0,0
26.01.2020 00:00:00 6,6 4,5 - - 29 16 - - SSW 998,4 45 - 0,0
25.01.2020 23:00:00 6,6 4,7 - - 24 13 - - SSW 999,0 35 0 0,0
25.01.2020 22:00:00 6,6 4,5 - - 31 17 - - SSW 999,7 45 0 0,0
25.01.2020 21:00:00 6,5 4,5 - - 29 16 - - SSW 1000,1 45 0 0,0
25.01.2020 20:00:00 6,6 4,7 - - 24 13 - - S 1000,6 40 0 0,0
25.01.2020 19:00:00 7,0 4,6 - - 24 13 - - S 1000,6 55 0 0,0
25.01.2020 18:00:00 7,6 4,9 - - 28 15 - - SSW 1001,0 55 0 0,0
25.01.2020 17:00:00 7,2 4,8 - - 16 9 - - S 1001,4 45 0 0,0
25.01.2020 16:00:00 7,3 5,0 - - 15 8 - - S 1001,4 45 0 0,0
25.01.2020 15:00:00 7,6 4,9 - - 16 9 - - S 1001,5 50 0 0,0
25.01.2020 14:00:00 7,5 5,0 - - 11 6 - - S 1001,8 60 0 0,0
25.01.2020 13:00:00 7,2 5,0 - - 8 4 - - S 1002,4 40 0 0,0
25.01.2020 12:00:00 7,8 4,5 - - 13 7 - - SSW 1002,9 65 0 0,0
25.01.2020 11:00:00 7,2 4,7 - - 18 10 - - SSW 1003,0 55 0 0,0
25.01.2020 10:00:00 7,1 4,9 - - 18 10 - - SSW 1003,6 45 0 0,0
25.01.2020 09:00:00 6,5 4,7 6,0 6,2 22 12 - - S 1003,4 35 0 0,0
25.01.2020 08:00:00 6,5 4,4 - - 22 12 - - SSW 1003,8 50 0 0,0
25.01.2020 07:00:00 6,6 4,6 - - 24 13 - - S 1004,0 65 0 0,0
25.01.2020 06:00:00 6,8 5,0 - - 24 13 - - SSW 1004,6 25 0 0,0
25.01.2020 05:00:00 7,0 5,5 - - 26 14 - - SSW 1005,0 65 0 0,0
25.01.2020 04:00:00 6,7 5,4 - - 24 13 - - SSW 1005,3 65 0 0,0
25.01.2020 03:00:00 6,9 5,5 - - 26 14 - - SSW 1006,6 55 0 0,0
25.01.2020 02:00:00 7,0 5,4 - - 24 13 - - SSW 1007,5 55 0 0,0
25.01.2020 01:00:00 6,8 5,4 - - 24 13 - - S 1008,3 45 0 0,0
25.01.2020 00:00:00 6,6 5,2 - - 24 13 - - S 1009,6 35 - 0,0
24.01.2020 23:00:00 6,4 4,7 - - 26 14 - - SSW 1010,3 40 0 0,0
24.01.2020 22:00:00 6,1 4,6 - - 22 12 - - SSW 1010,9 55 0 0,0
24.01.2020 21:00:00 5,7 4,5 - - 18 10 - - SSW 1011,7 45 0 0,0
24.01.2020 20:00:00 5,8 4,7 - - 18 10 - - SW 1012,6 13 0 0,2
24.01.2020 19:00:00 5,8 4,3 - - 18 10 - - SW 1012,9 26 0 0,0
24.01.2020 18:00:00 5,6 4,1 - - 16 9 - - W 1013,0 35 0 0,0
24.01.2020 17:00:00 5,5 4,4 - - 21 11 - - W 1013,3 7 0 0,2
24.01.2020 16:00:00 5,3 3,3 - - 21 11 - - WSW 1013,7 55 0 0,0
24.01.2020 15:00:00 5,8 3,3 - - 22 12 - - W 1013,6 30 0 0,0
24.01.2020 14:00:00 5,9 3,1 - - 22 12 - - W 1013,9 30 6 0,0
24.01.2020 13:00:00 6,3 2,9 - - 26 14 - - W 1014,3 30 6 0,0
24.01.2020 12:00:00 6,6 3,7 - - 24 13 - - W 1014,4 30 6 0,0
24.01.2020 11:00:00 5,7 3,6 - - 24 13 - - W 1014,6 24 0 0,2
24.01.2020 10:00:00 6,0 3,0 - - 26 14 - - W 1014,4 30 0 0,0
24.01.2020 09:00:00 5,2 2,3 6,0 6,2 26 14 - - W 1014,2 30 0 0,0
24.01.2020 08:00:00 5,4 3,0 - - 28 15 - - W 1014,0 27 0 0,2
24.01.2020 07:00:00 5,3 3,6 - - 16 9 - - W 1014,0 29 0 0,2
24.01.2020 06:00:00 5,4 3,0 - - 18 10 48 26 W 1014,1 20 0 0,0
24.01.2020 05:00:00 4,8 2,9 - - 24 13 68 37 W 1013,9 27 0 0,2
24.01.2020 04:00:00 5,7 3,4 - - 29 16 50 27 W 1014,0 20 0 0,0
24.01.2020 03:00:00 5,5 2,8 - - 28 15 48 26 W 1014,5 30 0 0,2
24.01.2020 02:00:00 6,5 3,7 - - 31 17 50 27 W 1014,9 21 0 0,0
24.01.2020 01:00:00 6,2 3,2 - - 34 18 48 26 W 1015,5 28 0 0,0
24.01.2020 00:00:00 6,1 3,5 - - 37 20 54 29 W 1015,7 14 - 0,0
23.01.2020 23:00:00 6,9 3,7 - - 39 21 57 31 W 1015,6 26 0 0,0
23.01.2020 22:00:00 7,0 4,1 - - 34 18 48 26 W 1015,9 23 0 0,0
23.01.2020 21:00:00 6,6 4,7 - - 34 18 46 25 W 1016,6 7 0 0,0
23.01.2020 20:00:00 7,2 5,4 - - 28 15 48 26 W 1016,7 17 0 0,2
23.01.2020 19:00:00 7,8 5,5 - - 34 18 50 27 W 1016,9 16 0 0,2
23.01.2020 18:00:00 8,0 5,8 - - 31 17 - - WSW 1017,2 15 0 0,0
23.01.2020 17:00:00 7,7 5,9 - - 29 16 54 29 WSW 1017,3 19 0 0,2
23.01.2020 16:00:00 7,5 6,6 - - 35 19 54 29 W 1018,0 5 0 0,8
23.01.2020 15:00:00 8,9 7,5 - - 41 22 68 37 WSW 1017,9 3,1 0 0,0
23.01.2020 14:00:00 9,3 7,1 - - 46 25 65 35 WSW 1018,1 40 0 0,0
23.01.2020 13:00:00 9,2 6,8 - - 44 24 70 38 WSW 1018,7 35 0 0,0
23.01.2020 12:00:00 9,0 6,7 - - 50 27 70 38 WSW 1019,5 40 0 0,0
23.01.2020 11:00:00 8,9 6,4 - - 37 20 68 37 WSW 1020,7 30 0 0,0
23.01.2020 10:00:00 8,8 5,8 - - 52 28 68 37 WSW 1020,5 35 0 0,0
23.01.2020 09:00:00 8,7 5,7 6,0 6,2 39 21 63 34 WSW 1021,6 30 0 0,0
23.01.2020 08:00:00 8,5 5,4 - - 35 19 61 33 WSW 1022,2 40 0 0,0
23.01.2020 07:00:00 8,4 5,7 - - 34 18 61 33 SSW 1022,5 30 0 0,0
23.01.2020 06:00:00 8,6 5,6 - - 37 20 61 33 WSW 1023,6 35 0 0,0
23.01.2020 05:00:00 8,4 5,3 - - 34 18 55 30 WSW 1024,1 35 0 0,0
23.01.2020 04:00:00 8,5 5,2 - - 44 24 70 38 WSW 1024,6 40 0 0,0
23.01.2020 03:00:00 8,1 5,5 - - 41 22 68 37 SW 1025,3 25 0 0,0
23.01.2020 02:00:00 8,2 6,1 - - 52 28 72 39 WSW 1026,2 35 0 0,2
23.01.2020 01:00:00 8,4 6,3 - - 48 26 72 39 WSW 1027,3 5 0 0,0
23.01.2020 00:00:00 9,0 6,0 - - 54 29 76 41 WSW 1027,4 30 - 0,0

tt = Température de l'air
td = dewpoint
tt -20cm = Température de l'air -20cm
tt -100cm = Température de l'air -100cm
ff = Vitesse du vent
fx = gusts
dd = Direction du vent
ppp = reduced air pressure
vv = visibility
sd = Ensoleillement
rr = Quantités de précipitations

stations d'obs. à proximité